Tracking 19800 objects as of 23-Jul-2019
HD Live streaming from Space Station
objects crossing your sky now

HOT BIRD 1

Track HOT BIRD 1 now!
HOT BIRD 1 is classified as:


NORAD ID: 23537
Int'l Code: 1995-016B
Perigee: 36,043.4 km
Apogee: 36,083.6 km
Inclination: 10.0 °
Period: 1,449.9 minutes
Semi major axis: 42434 km
RCS: 7.9621 m2 (large)
Launch date: March 28, 1995
Source: European Telecommunications Satellite Organization (EUTE)
Launch site: FRENCH GUIANA (FRGUI)

Cable programming; direct-to-home broadcasting; 16 channels, Western Europe
aabbcc
Your satellite tracking list
Your tracking list is empty




NASA's NSSDC Master Catalog

Two Line Element Set (TLE):
1 23537U 95016B   19203.43606576 -.00000303 +00000-0 +00000-0 0  9990
2 23537 010.0015 039.3165 0004738 019.9242 164.8694 00.99317211088664
Source of the keplerian elements: AFSPC